Regional Weather Roundup
Issued by NWS

Home | Current Version | Previous Version | Text Only | Print | Product List | Glossary On
Versions: 1 2 3 4 5 6 7 8 9 10 11 12 13 14 15 16 17 18 19 20 21 22 23 24 25 26 27
000
ASUS45 KBOI 172310
RWRID

IDAHO REGIONAL WEATHER ROUNDUP
NATIONAL WEATHER SERVICE BOISE ID
400 PM MST TUE JAN 17 2017

NOTE: "FAIR" INDICATES FEW OR NO CLOUDS BELOW 12000 FEET
WITH NO SIGNIFICANT WEATHER AND/OR OBSTRUCTIONS TO VISIBILITY

IDZ012-014-180000-
SOUTHWEST IDAHO


CITY           SKY/WX    TMP DP  RH WIND       PRES   REMARKS
BOISE          MOSUNNY   16   6  65 W5        30.27R WCI   9
CALDWELL       MOSUNNY    9   1  70 NE9       30.26F HAZE    WCI  -4
MOUNTAIN HOME  MOSUNNY   14  14 100 SE8       30.22F WCI   3
$$

IDZ016-017-180000-
SOUTHCENTRAL IDAHO


CITY           SKY/WX    TMP DP  RH WIND       PRES   REMARKS
BURLEY         SUNNY     22  11  62 NE16      30.16F WCI   8
JEROME         SUNNY     19  12  74 NE20      30.17S WCI   3
TWIN FALLS     SUNNY     24  14  65 NE9       30.17S WCI  14
$$

IDZ019>023-180000-
SOUTHEAST IDAHO


CITY           SKY/WX    TMP DP  RH WIND       PRES   REMARKS
IDAHO FALLS    CLOUDY    11   6  81 N6        30.23S WCI   1
POCATELLO      CLOUDY    17   7  64 N7        30.22F WCI   8
REXBURG        CLOUDY    17   6  62 CALM      30.21S
$$

IDZ006-010-011-018-031-032-180000-
CENTRAL IDAHO MOUNTAINS


CITY           SKY/WX    TMP DP  RH WIND       PRES   REMARKS
MCCALL         PTSUNNY   21  14  74 CALM      30.07R
HAILEY         SUNNY     23  10  58 CALM      30.15F
STANLEY          N/A     16  10  77 CALM      30.07F
SALMON         CLOUDY     1  -6  71 CALM      30.26F
CHALLIS        SUNNY     -2  -7  79 SW5       30.17S WCI -12
$$

IDZ002-004-006-007-026-180000-
NORTHERN IDAHO


CITY           SKY/WX    TMP DP  RH WIND       PRES   REMARKS
LEWISTON       PTSUNNY   33  19  56 S13G25    29.96F WCI  24
LOWELL           N/A     30  25  81 N3        30.07R
COEUR D`ALENE  CLOUDY    29  26  89 NE9       29.91F WCI  20
MULLAN PASS    CLOUDY    30  19  63 S8        29.87F WCI  22
$$




USA.gov is the U.S. government's official web portal to all federal, state and local government web resources and services.